[Date Prev][Date Next][Thread Prev][Thread Next] - [Date Index][Thread Index][Author Index]
2 Line ISS Keps 2-2
- Subject: [sarex] 2 Line ISS Keps 2-2
- From: "Dave Larsen Ph.D." <doc@xxxxxxxxxxx>
- Date: Sun, 2 Feb 2003 02:00:21 -0800
ISS
1 25544U 98067A 03033.18986693 .00047181 00000-0 57231-3 0 6482
2 25544 51.6365 338.3120 0005629 106.1126 35.8702 15.60121089239942
----
Via the sarex mailing list at AMSAT.ORG courtesy of AMSAT-NA.
To unsubscribe, send "unsubscribe sarex" to Majordomo@amsat.org
AMSAT Home